Terminal Aerodrome Forecast
Issued by NWS

Home | Current Version | Previous Version | Text Only | Print | Product List | Glossary On
Versions: 1 2 3 4 5 6 7 8 9 10 11 12 13 14
000
FTUS45 KRIW 261100
TAFJAC
TAF
KJAC 261139Z 2612/2712 36010KT P6SM -SN SCT040 BKN070
     FM261700 VRB04KT P6SM SCT080
     FM270100 36006KT P6SM BKN040
      AMD LTD TO CLD VIS AND WIND=

USA.gov is the U.S. government's official web portal to all federal, state and local government web resources and services.